2021-09-24 00:03:08 r, 18.07m,0000000005Hz,0000091682c,0000000.199s, 022.5C,00002191
2021-09-24 00:13:09 r, 18.28m,0000000004Hz,0000111926c,0000000.243s, 023.2C,00002191
2021-09-24 00:23:08 r, 18.07m,0000000005Hz,0000092579c,0000000.201s, 023.8C,00002191
2021-09-24 00:33:09 r, 17.89m,0000000005Hz,0000078888c,0000000.171s, 024.1C,00002191
2021-09-24 00:43:08 r, 18.43m,0000000004Hz,0000128889c,0000000.280s, 024.4C,00002191
2021-09-24 00:53:08 r, 18.27m,0000000004Hz,0000111613c,0000000.242s, 024.4C,00002191
2021-09-24 01:03:08 r, 18.06m,0000000005Hz,0000091216c,0000000.198s, 024.4C,00002191
2021-09-24 01:13:10 r, 17.43m,0000000009Hz,0000051655c,0000000.112s, 024.1C,00002191
2021-09-24 01:23:08 r, 17.43m,0000000008Hz,0000051632c,0000000.112s, 024.1C,00002191
2021-09-24 01:33:10 r, 17.53m,0000000008Hz,0000056516c,0000000.123s, 024.1C,00002191
2021-09-24 01:43:08 r, 18.33m,0000000004Hz,0000117771c,0000000.256s, 023.8C,00002191
2021-09-24 01:53:08 r, 17.55m,0000000008Hz,0000057361c,0000000.124s, 023.5C,00002191
2021-09-24 02:03:08 r, 17.82m,0000000006Hz,0000073788c,0000000.160s, 023.2C,00002191
2021-09-24 02:13:09 r, 17.66m,0000000007Hz,0000063458c,0000000.138s, 022.8C,00002191
2021-09-24 02:23:08 r, 17.59m,0000000008Hz,0000059807c,0000000.130s, 022.8C,00002191
2021-09-24 02:33:09 r, 17.64m,0000000008Hz,0000062435c,0000000.135s, 022.8C,00002191
2021-09-24 02:43:08 r, 17.46m,0000000008Hz,0000053200c,0000000.115s, 022.8C,00002191
2021-09-24 02:53:08 r, 17.87m,0000000006Hz,0000076825c,0000000.167s, 022.8C,00002191
2021-09-24 03:03:09 r, 18.06m,0000000005Hz,0000091289c,0000000.198s, 023.2C,00002191
2021-09-24 03:13:10 r, 17.49m,0000000009Hz,0000054289c,0000000.118s, 023.5C,00002191
2021-09-24 03:23:08 r, 17.41m,0000000009Hz,0000050679c,0000000.110s, 023.8C,00002191
2021-09-24 03:33:10 r, 17.31m,0000000010Hz,0000046128c,0000000.100s, 023.8C,00002191
2021-09-24 03:43:08 r, 17.41m,0000000009Hz,0000050495c,0000000.110s, 023.8C,00002191
2021-09-24 03:53:08 r, 17.41m,0000000009Hz,0000050481c,0000000.110s, 023.8C,00002191
2021-09-24 04:03:10 r, 17.28m,0000000010Hz,0000044933c,0000000.098s, 023.5C,00002191
2021-09-24 04:13:08 r, 17.22m,0000000011Hz,0000042280c,0000000.092s, 023.2C,00002191
2021-09-24 04:23:08 r, 17.24m,0000000011Hz,0000043019c,0000000.093s, 022.5C,00002191
2021-09-24 04:33:08 r, 17.36m,0000000009Hz,0000048316c,0000000.105s, 022.2C,00002191
2021-09-24 04:43:09 r, 17.20m,0000000011Hz,0000041627c,0000000.090s, 022.2C,00002191
2021-09-24 04:53:08 r, 17.20m,0000000011Hz,0000041688c,0000000.090s, 021.9C,00002191
2021-09-24 05:03:09 r, 17.54m,0000000009Hz,0000056765c,0000000.123s, 021.5C,00002191
2021-09-24 05:13:08 r, 17.86m,0000000006Hz,0000075777c,0000000.164s, 021.2C,00002191
2021-09-24 05:23:08 r, 18.02m,0000000006Hz,0000088166c,0000000.191s, 020.9C,00002191
2021-09-24 05:33:08 r, 18.16m,0000000005Hz,0000100801c,0000000.219s, 020.6C,00002191
2021-09-24 05:43:10 r, 18.28m,0000000004Hz,0000112222c,0000000.244s, 019.9C,00002191
2021-09-24 05:53:08 r, 18.36m,0000000004Hz,0000120818c,0000000.262s, 019.6C,00002191
2021-09-24 06:03:08 r, 18.41m,0000000003Hz,0000126540c,0000000.275s, 019.6C,00002191
2021-09-24 06:13:09 r, 18.31m,0000000004Hz,0000115024c,0000000.250s, 019.3C,00002191
2021-09-24 06:23:08 r, 17.75m,0000000007Hz,0000069324c,0000000.150s, 019.0C,00002191
2021-09-24 06:33:08 r, 16.52m,0000000021Hz,0000022152c,0000000.048s, 018.6C,00002191
2021-09-24 06:43:09 r, 14.51m,0000000132Hz,0000000000c,0000000.000s, 018.3C,00002191
2021-09-24 06:53:08 r, 12.30m,0000001013Hz,0000000000c,0000000.000s, 018.0C,00002191
2021-09-24 07:03:08 r, 10.24m,0000006785Hz,0000000000c,0000000.000s, 017.7C,00002191
2021-09-24 07:13:10 r, 08.68m,0000028534Hz,0000000000c,0000000.000s, 017.7C,00002191
2021-09-24 07:23:08 r, 07.67m,0000072217Hz,0000000000c,0000000.000s, 017.4C,00002191
2021-09-24 07:33:08 r, 06.96m,0000139204Hz,0000000000c,0000000.000s, 017.4C,00002191
2021-09-24 07:43:10 r, 06.44m,0000223825Hz,0000000000c,0000000.000s, 017.0C,00002191
2021-09-24 07:53:08 r, 05.97m,0000348086Hz,0000000000c,0000000.000s, 016.7C,00002191
2021-09-24 08:03:08 r, 00.00m,0000440595Hz,0000000000c,0000000.000s, 017.4C,00002191
2021-09-24 08:13:09 r, 00.00m,0000527187Hz,0000000000c,0000000.000s, 018.0C,00002191
2021-09-24 08:23:08 r, 00.00m,0000597510Hz,0000000000c,0000000.000s, 019.3C,00002191
2021-09-24 08:33:08 r, 00.00m,0000597415Hz,0000000000c,0000000.000s, 020.3C,00002191
2021-09-24 08:43:09 r, 00.00m,0000597198Hz,0000000000c,0000000.000s, 021.2C,00002191
2021-09-24 08:53:08 r, 00.00m,0000597216Hz,0000000000c,0000000.000s, 022.2C,00002191
2021-09-24 09:03:08 r, 00.00m,0000597214Hz,0000000000c,0000000.000s, 022.2C,00002191
2021-09-24 09:13:09 r, 00.00m,0000597203Hz,0000000000c,0000000.000s, 021.9C,00002191
2021-09-24 09:23:08 r, 00.00m,0000597232Hz,0000000000c,0000000.000s, 021.9C,00002191
2021-09-24 09:33:08 r, 00.00m,0000597214Hz,0000000000c,0000000.000s, 022.5C,00002191
2021-09-24 09:43:10 r, 00.00m,0000597136Hz,0000000000c,0000000.000s, 022.8C,00002191
2021-09-24 09:53:08 r, 00.00m,0000597131Hz,0000000000c,0000000.000s, 022.8C,00002191
2021-09-24 10:03:08 r, 00.00m,0000597083Hz,0000000000c,0000000.000s, 023.2C,00002191
2021-09-24 10:13:10 r, 00.00m,0000597025Hz,0000000000c,0000000.000s, 024.1C,00002191
2021-09-24 10:23:08 r, 00.00m,0000596958Hz,0000000000c,0000000.000s, 024.1C,00002191
2021-09-24 10:33:08 r, 00.00m,0000596961Hz,0000000000c,0000000.000s, 024.8C,00002191
2021-09-24 10:43:09 r, 00.00m,0000596812Hz,0000000000c,0000000.000s, 025.1C,00002191
2021-09-24 10:53:08 r, 00.00m,0000596804Hz,0000000000c,0000000.000s, 025.7C,00002191
2021-09-24 11:03:08 r, 00.00m,0000596681Hz,0000000000c,0000000.000s, 026.4C,00002191
2021-09-24 11:13:09 r, 00.00m,0000596695Hz,0000000000c,0000000.000s, 026.7C,00002191
2021-09-24 11:23:08 r, 00.00m,0000596483Hz,0000000000c,0000000.000s, 028.0C,00002191
2021-09-24 11:33:08 r, 00.00m,0000596277Hz,0000000000c,0000000.000s, 029.6C,00002191
2021-09-24 11:43:09 r, 00.00m,0000596090Hz,0000000000c,0000000.000s, 030.2C,00002191
2021-09-24 11:53:08 r, 00.00m,0000596117Hz,0000000000c,0000000.000s, 031.2C,00002191
2021-09-24 12:03:08 r, 00.00m,0000596091Hz,0000000000c,0000000.000s, 030.9C,00002191
2021-09-24 12:13:11 r, 00.00m,0000596065Hz,0000000000c,0000000.000s, 031.2C,00002191
2021-09-24 12:23:09 r, 00.00m,0000596031Hz,0000000000c,0000000.000s, 031.2C,00002191
2021-09-24 12:33:08 r, 00.00m,0000596236Hz,0000000000c,0000000.000s, 030.6C,00002191
2021-09-24 12:43:09 r, 00.00m,0000596291Hz,0000000000c,0000000.000s, 029.9C,00002191
2021-09-24 12:53:09 r, 00.00m,0000596167Hz,0000000000c,0000000.000s, 030.6C,00002191
2021-09-24 13:03:08 r, 00.00m,0000596082Hz,0000000000c,0000000.000s, 030.9C,00002191
2021-09-24 13:13:09 r, 00.00m,0000595873Hz,0000000000c,0000000.000s, 031.9C,00002191
2021-09-24 13:23:09 r, 00.00m,0000595731Hz,0000000000c,0000000.000s, 032.5C,00002191
2021-09-24 13:33:08 r, 00.00m,0000595698Hz,0000000000c,0000000.000s, 033.5C,00002191
2021-09-24 13:43:09 r, 00.00m,0000595400Hz,0000000000c,0000000.000s, 034.8C,00002191
2021-09-24 13:53:10 r, 00.00m,0000595501Hz,0000000000c,0000000.000s, 034.8C,00002191
2021-09-24 14:03:08 r, 00.00m,0000595354Hz,0000000000c,0000000.000s, 035.1C,00002191
2021-09-24 14:13:10 r, 00.00m,0000595561Hz,0000000000c,0000000.000s, 034.1C,00002191
2021-09-24 14:23:09 r, 00.00m,0000595630Hz,0000000000c,0000000.000s, 033.1C,00002191
2021-09-24 14:33:08 r, 00.00m,0000595754Hz,0000000000c,0000000.000s, 032.5C,00002191
2021-09-24 14:43:10 r, 00.00m,0000595801Hz,0000000000c,0000000.000s, 032.2C,00002191
2021-09-24 14:53:09 r, 00.00m,0000595871Hz,0000000000c,0000000.000s, 031.9C,00002191
2021-09-24 15:03:08 r, 00.00m,0000596052Hz,0000000000c,0000000.000s, 030.9C,00002191
2021-09-24 15:13:09 r, 00.00m,0000596008Hz,0000000000c,0000000.000s, 030.6C,00002191
2021-09-24 15:23:09 r, 00.00m,0000595957Hz,0000000000c,0000000.000s, 030.6C,00002191
2021-09-24 15:33:08 r, 00.00m,0000596123Hz,0000000000c,0000000.000s, 029.6C,00002191
2021-09-24 15:43:09 r, 00.00m,0000596248Hz,0000000000c,0000000.000s, 029.0C,00002191
2021-09-24 15:53:09 r, 00.00m,0000596351Hz,0000000000c,0000000.000s, 028.6C,00002191
2021-09-24 16:03:08 r, 00.00m,0000596435Hz,0000000000c,0000000.000s, 028.3C,00002191
2021-09-24 16:13:10 r, 00.00m,0000596322Hz,0000000000c,0000000.000s, 028.6C,00002191
2021-09-24 16:23:09 r, 00.00m,0000596245Hz,0000000000c,0000000.000s, 029.3C,00002191
2021-09-24 16:33:08 r, 00.00m,0000596145Hz,0000000000c,0000000.000s, 029.6C,00002191
2021-09-24 16:43:10 r, 00.00m,0000596073Hz,0000000000c,0000000.000s, 029.9C,00002191
2021-09-24 16:53:09 r, 00.00m,0000596115Hz,0000000000c,0000000.000s, 029.9C,00002191
2021-09-24 17:03:08 r, 00.00m,0000596017Hz,0000000000c,0000000.000s, 030.9C,00002191
2021-09-24 17:13:09 r, 00.00m,0000595873Hz,0000000000c,0000000.000s, 032.2C,00002191
2021-09-24 17:23:09 r, 00.00m,0000595863Hz,0000000000c,0000000.000s, 032.2C,00002191
2021-09-24 17:33:08 r, 00.00m,0000596021Hz,0000000000c,0000000.000s, 030.9C,00002191
2021-09-24 17:43:09 r, 00.00m,0000596091Hz,0000000000c,0000000.000s, 029.9C,00002191
2021-09-24 17:53:09 r, 00.00m,0000596268Hz,0000000000c,0000000.000s, 029.3C,00002191
2021-09-24 18:03:08 r, 00.00m,0000596317Hz,0000000000c,0000000.000s, 028.6C,00002191
2021-09-24 18:13:09 r, 00.00m,0000596350Hz,0000000000c,0000000.000s, 028.3C,00002191
2021-09-24 18:23:10 r, 00.00m,0000535207Hz,0000000000c,0000000.000s, 027.7C,00002191
2021-09-24 18:33:08 r, 00.00m,0000406939Hz,0000000000c,0000000.000s, 027.3C,00002191
2021-09-24 18:43:10 r, 00.00m,0000458353Hz,0000000000c,0000000.000s, 027.0C,00002191
2021-09-24 18:53:09 r, 06.04m,0000325528Hz,0000000000c,0000000.000s, 026.4C,00002191
2021-09-24 19:03:08 r, 06.43m,0000225507Hz,0000000000c,0000000.000s, 026.4C,00002191
2021-09-24 19:13:10 r, 07.03m,0000130280Hz,0000000000c,0000000.000s, 026.1C,00002191
2021-09-24 19:23:09 r, 08.00m,0000053459Hz,0000000000c,0000000.000s, 025.7C,00002191
2021-09-24 19:33:08 r, 09.31m,0000015924Hz,0000000000c,0000000.000s, 025.4C,00002191
2021-09-24 19:43:09 r, 11.27m,0000002629Hz,0000000000c,0000000.000s, 025.4C,00002191
2021-09-24 19:53:09 r, 13.47m,0000000347Hz,0000000000c,0000000.000s, 025.4C,00002191
2021-09-24 20:03:08 r, 15.35m,0000000062Hz,0000007553c,0000000.016s, 025.1C,00002191
2021-09-24 20:13:09 r, 17.47m,0000000008Hz,0000053417c,0000000.116s, 024.8C,00002191
2021-09-24 20:23:09 r, 18.98m,0000000002Hz,0000212384c,0000000.461s, 024.4C,00002191
2021-09-24 20:33:08 r, 20.07m,0000000001Hz,0000583881c,0000001.267s, 024.1C,00002191
2021-09-24 20:43:11 r, 20.48m,0000000001Hz,0000844788c,0000001.833s, 023.5C,00002191
2021-09-24 20:53:09 r, 20.77m,0000000000Hz,0001100868c,0000002.389s, 023.2C,00002191
2021-09-24 21:03:08 r, 20.70m,0000000001Hz,0001028487c,0000002.232s, 022.5C,00002191
2021-09-24 21:13:10 r, 20.62m,0000000001Hz,0000959363c,0000002.082s, 022.2C,00002191
2021-09-24 21:23:09 r, 20.59m,0000000000Hz,0000933865c,0000002.027s, 021.5C,00002191
2021-09-24 21:33:08 r, 20.48m,0000000001Hz,0000851385c,0000001.848s, 020.9C,00002191
2021-09-24 21:43:09 r, 20.40m,0000000000Hz,0000788865c,0000001.712s, 020.6C,00002191
2021-09-24 21:53:10 r, 20.32m,0000000001Hz,0000729013c,0000001.582s, 019.9C,00002191
2021-09-24 22:03:08 r, 20.16m,0000000001Hz,0000631376c,0000001.370s, 019.6C,00002191
2021-09-24 22:13:08 r, 20.09m,0000000001Hz,0000593695c,0000001.288s, 019.3C,00002191
2021-09-24 22:23:11 r, 20.02m,0000000001Hz,0000556901c,0000001.209s, 019.0C,00002191
2021-09-24 22:33:08 r, 19.96m,0000000001Hz,0000524182c,0000001.138s, 018.6C,00002191
2021-09-24 22:43:08 r, 19.90m,0000000001Hz,0000497433c,0000001.079s, 018.3C,00002191
2021-09-24 22:53:11 r, 19.85m,0000000001Hz,0000472247c,0000001.025s, 018.0C,00002191
2021-09-24 23:03:08 r, 19.80m,0000000001Hz,0000451210c,0000000.979s, 017.7C,00002191
2021-09-24 23:13:08 r, 19.74m,0000000001Hz,0000426031c,0000000.925s, 017.7C,00002191
2021-09-24 23:23:09 r, 19.93m,0000000001Hz,0000510025c,0000001.107s, 017.7C,00002191
2021-09-24 23:33:08 r, 19.10m,0000000002Hz,0000239102c,0000000.519s, 017.7C,00002191
2021-09-24 23:43:08 r, 19.65m,0000000001Hz,0000391730c,0000000.850s, 017.7C,00002191
2021-09-24 23:53:09 r, 19.50m,0000000001Hz,0000346430c,0000000.752s, 017.7C,00002191
